Northfield, Minnesota, United States (55057)
Lat: 44.46N, Lon: 93.16W
Wx Zone: MNZ077
Local Info
Past Weather Observations for Today

NOTE: This archive is for the closest National Weather Service station to Northfield. Information may differ from the station used for current weather conditions.

Click here for Long-term Archive

Time Weather Temperature Dewpoint Humidity Pressure Winds Precip Visibility
14:12
Mostly Cloudy
73°F / 23°C 50°F / 10°C 44% 30.15 in
(1021 mb)
N 8.1 mph
(N 13 kph)
- 10SM
13:51
Mostly Cloudy
75°F / 24°C 50°F / 10°C 41% 30.18 in
(1022 mb)
NW 6.9 mph
(NW 11 kph)
- 10SM
13:31
Mostly Cloudy
72°F / 22°C 50°F / 10°C 47% 30.18 in
(1022 mb)
NW 8.1 mph
(NW 13 kph)
- 10SM
13:12
Mostly Cloudy
73°F / 23°C 50°F / 10°C 44% 30.18 in
(1022 mb)
N 5.8 mph
(N 9 kph)
- 10SM
12:51
Overcast
73°F / 23°C 50°F / 10°C 44% 30.18 in
(1022 mb)
N 5.8 mph
(N 9 kph)
- 10SM
12:31
Overcast
73°F / 23°C 50°F / 10°C 44% 30.18 in
(1022 mb)
NNW 9.2 mph
(NNW 15 kph)
- 10SM
12:11
Overcast
72°F / 22°C 52°F / 11°C 50% 30.18 in
(1022 mb)
N 8.1 mph
(N 13 kph)
- 10SM
11:51
Mostly Cloudy
73°F / 23°C 52°F / 11°C 47% 30.18 in
(1022 mb)
N 8.1 mph
(N 13 kph)
- 10SM
11:31
Overcast
72°F / 22°C 52°F / 11°C 50% 30.18 in
(1022 mb)
N 13.8 mph
(N 22 kph)
- 10SM
11:11
Overcast
72°F / 22°C 55°F / 13°C 57% 30.18 in
(1022 mb)
N 8.1 mph
(N 13 kph)
- 10SM
10:51
Overcast
72°F / 22°C 55°F / 13°C 57% 30.18 in
(1022 mb)
NNW 9.2 mph
(NNW 15 kph)
- 10SM
10:31
Overcast
70°F / 21°C 57°F / 14°C 64% 30.18 in
(1022 mb)
N 4.6 mph
(N 7 kph)
- 10SM
10:11
Overcast
70°F / 21°C 57°F / 14°C 64% 30.21 in
(1023 mb)
NNW 6.9 mph
(NNW 11 kph)
- 10SM
09:52
Overcast
70°F / 21°C 57°F / 14°C 64% 30.21 in
(1023 mb)
NNW 6.9 mph
(NNW 11 kph)
- 10SM
09:31
Overcast
68°F / 20°C 57°F / 14°C 69% 30.21 in
(1023 mb)
WNW 4.6 mph
(WNW 7 kph)
- 10SM
09:11
Overcast
68°F / 20°C 59°F / 15°C 73% 30.21 in
(1023 mb)
NNW 4.6 mph
(NNW 7 kph)
- 10SM
08:52
Overcast
66°F / 19°C 57°F / 14°C 73% 30.21 in
(1023 mb)
NW 4.6 mph
(NW 7 kph)
- 10SM
08:31
Overcast
66°F / 19°C 57°F / 14°C 73% 30.18 in
(1022 mb)
NW 6.9 mph
(NW 11 kph)
- 10SM
08:11
Overcast
66°F / 19°C 57°F / 14°C 73% 30.18 in
(1022 mb)
NNW 5.8 mph
(NNW 9 kph)
- 10SM
07:52
Overcast
66°F / 19°C 57°F / 14°C 73% 30.18 in
(1022 mb)
N 4.6 mph
(N 7 kph)
- 10SM
07:31
Overcast
66°F / 19°C 57°F / 14°C 73% 30.18 in
(1022 mb)
N 5.8 mph
(N 9 kph)
- 10SM
07:11
Overcast
66°F / 19°C 57°F / 14°C 73% 30.18 in
(1022 mb)
NNE 3.5 mph
(NNE 6 kph)
- 10SM
06:52
Overcast
64°F / 18°C 59°F / 15°C 83% 30.18 in
(1022 mb)
NNW 3.5 mph
(NNW 6 kph)
- 10SM
06:31
Mostly Cloudy
64°F / 18°C 59°F / 15°C 83% 30.18 in
(1022 mb)
N 4.6 mph
(N 7 kph)
- 10SM
06:11
Overcast
64°F / 18°C 59°F / 15°C 83% 30.18 in
(1022 mb)
NW 3.5 mph
(NW 6 kph)
- 10SM
05:51
Overcast
63°F / 17°C 59°F / 15°C 88% 30.18 in
(1022 mb)
Calm - 10SM
05:31
Overcast
61°F / 16°C 57°F / 14°C 88% 30.18 in
(1022 mb)
Calm - 10SM
05:11
Overcast
61°F / 16°C 57°F / 14°C 88% 30.15 in
(1021 mb)
Calm - 10SM
04:51
Overcast
63°F / 17°C 57°F / 14°C 83% 30.15 in
(1021 mb)
Calm - 10SM
04:31
Overcast
63°F / 17°C 59°F / 15°C 88% 30.15 in
(1021 mb)
Calm - 10SM
04:11
Overcast
63°F / 17°C 59°F / 15°C 88% 30.15 in
(1021 mb)
Calm - 10SM
03:51
Overcast
63°F / 17°C 59°F / 15°C 88% 30.15 in
(1021 mb)
Calm - 10SM
03:32
Overcast
63°F / 17°C 59°F / 15°C 88% 30.15 in
(1021 mb)
Calm - 10SM
03:11
Overcast
63°F / 17°C 59°F / 15°C 88% 30.15 in
(1021 mb)
Calm - 10SM
02:51
Overcast
63°F / 17°C 57°F / 14°C 83% 30.15 in
(1021 mb)
Calm - 10SM
02:32
Overcast
63°F / 17°C 59°F / 15°C 88% 30.15 in
(1021 mb)
Calm - 10SM
02:11
Overcast
63°F / 17°C 57°F / 14°C 83% 30.12 in
(1020 mb)
Calm - 10SM
01:51
Overcast
63°F / 17°C 57°F / 14°C 83% 30.12 in
(1020 mb)
Calm - 10SM
01:32
Overcast
63°F / 17°C 55°F / 13°C 77% 30.12 in
(1020 mb)
Calm - 10SM
01:11
Overcast
63°F / 17°C 57°F / 14°C 83% 30.12 in
(1020 mb)
Calm - 10SM
00:51
Overcast
63°F / 17°C 57°F / 14°C 83% 30.12 in
(1020 mb)
Calm - 10SM
00:31
Overcast
63°F / 17°C 57°F / 14°C 83% 30.12 in
(1020 mb)
Calm - 10SM
00:11
Overcast
61°F / 16°C 55°F / 13°C 83% 30.12 in
(1020 mb)
Calm - 10SM
Time Weather Temperature Dewpoint Humidity Pressure Winds Precip Visibility


Weather for websites

WeatherForYou.com, LLC is not responsible for any damages or problems caused by this service. Current weather conditions are obtained from the closest station including government and personal stations which may have varying degrees of accuracy. Weather forecasts are derived from the NOAA NDFD. Like all things, this site belongs to Jesus Christ... He just trusts me to maintain it. If you have any questions or comments email webmaster@weatherforyou.com

Copyright © 2014, WeatherForYou.com LLC. All rights reserved.